Location: *
(2.5500°S, 65.9667°W)
Time: 16:47:03
(UTC+00:00)

A-11 Canister half - Pass Details

Date: 20 April 2024
Orbit: 1525 x 1683 km, 47.3° (Epoch: 21 May)

Event Time Altitude Azimuth Distance (km) Brightness Sun altitude
Exits shadow 06:26:41 21° 65° (ENE) 3,059 10.8 -58.0°
Drops below altitude 10° 06:29:28 10° 58° (ENE) 3,857 11.4 -57.3°
Sets 06:32:46 0° 53° (NE) 4,862 12.1 -56.5°
